{"data":{"norad_id":52609,"epoch":"2026-09-20T04:17:15.799776Z","epoch_age_seconds":90976,"freshness":"FRESH","line1":"1 52609U 22052M   26263.17865509  .00000396  00000+0  22864-4 0  9996","line2":"2 52609  53.1603 116.8822 0001427  82.8701 277.2463 15.34387011240347","mean_motion":15.34387011,"eccentricity":0.0001427,"inclination_deg":53.1603,"raan_deg":116.8822,"arg_perigee_deg":82.8701,"mean_anomaly_deg":277.2463,"bstar":2.2864e-5,"rev_number":24034,"period_min":93.848552527925,"perigee_km":461.76565311336,"apogee_km":463.71803993615,"semimajor_km":6840.8788465248,"source":"CELESTRAK","updated_at":"2026-09-20T09:00:40.069811Z"}}